www.pogodaiklimat.ru

Погода и климат >> Архив погоды >> Китай >> Внутренняя Монголия >> Шинэ-Барга-Юци


ПОГОДА в Шинэ-Барга-Юци

  • Прогноз погоды в Шинэ-Барга-Юци
  • Монитор погоды в Шинэ-Барга-Юци

АРХИВ ПОГОДЫ в Шинэ-Барга-Юци

Время (UTC), дата Ветер
(напр.,м/с)
 
Видим.   Явления Облачность Т
(С)
Тd
(С)
f
(%)
Тe
(С)
Тes
(С)
Комфортность P
(гПа)
Po
(гПа)
Тmin
(С)
Tmax
(С)
R
(мм)
R24
(мм)
S
(см)
06 15.04 ЮЗ 5
{21}
30 км 8/8
[]
+21.1 -10.5 11 +20 +21 995.7 933.1 -3.0
09 15.04 З 9
{21}
30 км 4/4 1000 м
[]
+21.7 -10.0 11 +20 +20 992.3 930.4
12 15.04 СЗ 4 30 км 1/1
[]
+11.7 -13.3 16 +10 +10 993.2 930.2
15 15.04 З 6 30 км н/о +6.5 -12.6 24 +3 +3 991.2 926.1
18 15.04 С 18
{25}
700 м в посл. час дождь ?/? +5.7 -4.2 49 -1 -1 992.2 930.2 +22.7
21 15.04 С 4 30 км н/о +3.1 -2.4 67 -1 -1 996.9 930.6
00 16.04 С 6
{25}
30 км 9/9
[]
+2.7 -3.0 66 -3 -3 1002.0 938.1 0.0
03 16.04 С 4
{19}
30 км 8/8 1000 м
[]
+6.7 -7.0 37 +4 +4 1002.7 936.9
06 16.04 В 3 30 км 9/9 1000 м
[]
+8.6 -7.6 31 +7 +8 1000.8 937.0 +2.2
09 16.04 В 5 30 км 8/8
[]
+7.4 -9.5 29 +4 +5 999.3 933.9
12 16.04 В 4 30 км 8/8
[]
+4.5 -10.4 33 +1 +1 999.1 934.6
15 16.04 В 5 30 км н/о +3.7 -9.3 38 -1 -1 996.1 930.0
18 16.04 В 6 30 км н/о +1.3 -10.5 41 -4 -4 993.2 929.4 +8.9
21 16.04 СВ 8 30 км н/о +1.6 -15.4 27 -4 -4 991.0 924.8
00 17.04 СВ 17
{21}
9000 м 9/9 1000 м
[]
+3.2 -16.5 22 -4 -4 992.3 928.3
03 17.04 СВ 12
{23}
12 км в посл. час дождь со снегом {морось} 9/9 1000 м
[]
+1.4 -4.9 63 -6 -6 997.0 930.3
06 17.04 СВ 10
{23}
30 км {снег, дождь} 9/9 1000 м
[]
+3.0 -4.0 60 -4 -4 1001.4 936.4 0.0
09 17.04 С 8
{17}
30 км 9/9 1000 м
[]
+4.4 -5.4 49 -1 -1 1004.7 938.2
12 17.04 С 2 30 км 3/3
[]
+0.1 -7.4 57 -3 -3 1009.9 944.2 0.0
15 17.04 СЗ 5 30 км н/о -3.0 -9.0 63 -9 -9 1013.0 944.2
18 17.04 СЗ 7 30 км н/о -3.3 -5.6 84 -11 -11 1015.0 948.6 +4.6
21 17.04 С 6 30 км н/о -5.0 -7.0 86 -13 -13 1017.4 947.8
00 18.04 С 5 30 км 1/1
[]
+1.5 -5.9 58 -4 -2 1019.7 953.2
03 18.04 С 5 30 км 1/1
[]
+6.6 -10.2 29 +3 +10 1020.2 953.2
06 18.04 С 6 30 км ясно +8.6 -12.5 21 +6 +10 1018.5 952.5 -5.3
09 18.04 З 2 30 км 3/3
[]
+9.9 -14.0 17 +9 +11 1016.4 950.4
12 18.04 В 3 21 км 5/5
[]
+4.5 -12.9 27 +2 +2 1016.6 950.8
15 18.04 Ю 3 30 км н/о +1.7 -14.4 29 -2 -2 1015.4 947.6
18 18.04 Ю 5 30 км н/о +0.9 -16.0 27 -4 -4 1013.7 948.5 +10.2
21 18.04 ЮЗ 3 30 км н/о +0.7 -18.1 23 -3 -3 1012.4 944.5
00 19.04 Ю 2 30 км 3/3
[]
+5.3 -15.9 20 +4 +7 1011.1 946.1
03 19.04 Ю 12
{18}
12 км 6/6
[]
+15.2 -10.5 16 +13 +13 1006.9 942.7
06 19.04 ЮЗ 11
{19}
17 км 9/9
[]
+18.7 -11.3 12 +17 +17 1001.5 938.2 -3.1
09 19.04 Ю 10
{19}
27 км 4/4
[]
+20.8 -9.6 12 +19 +19 995.7 933.4
12 19.04 СЗ 14
{21}
1200 м 9/9
[]
+17.2 -4.1 23 +15 +15 994.1 931.6
15 19.04 С 19
{29}
2300 м пыльный позёмок ?/? +6.2 -8.1 35 -1 -1 999.9 934.1
18 19.04 С 12
{29}
24 км ?/? +2.1 -14.1 29 -5 -5 1006.8 943.3 +20.9 0.2
21 19.04 С 12
{27}
30 км ?/? -2.0 -15.8 34 -10 -10 1009.9 941.6
00 20.04 С 16
{23}
17 км 3/3
[]
+1.1 -15.4 28 -7 -7 1011.6 947.5 0.2
03 20.04 СЗ 13
{23}
20 км 4/4
[]
+5.2 -16.6 19 -1 -1 1012.6 945.8
06 20.04 З 10
{20}
30 км 3/3
[]
+9.0 -18.9 12 +5 +6 1011.8 946.9 -2.6
09 20.04 СЗ 10
{18}
30 км 3/3
[]
+9.3 -18.7 12 +6 +6 1011.2 945.4
12 20.04 СЗ 3
{18}
30 км 3/3
[]
+2.7 -19.9 17 0 0 1012.6 946.8
15 20.04 З 2 30 км н/о -0.5 -20.2 21 -3 -3 1013.4 945.2
18 20.04 З 1 30 км н/о -4.1 -20.8 26 -5 -5 1013.5 947.8 +10.0
21 20.04 З 2 30 км н/о -7.5 -22.9 28 -11 -11 1013.6 943.6
00 21.04 В 4 26 км 8/8
[]
+3.4 -16.9 21 0 +1 1012.0 946.5
03 21.04 В 7 30 км 3/3
[]
+10.1 -13.9 17 +7 +10 1009.9 944.4
06 21.04 В 5 30 км 3/3
[]
+12.4 -16.2 12 +11 +15 1008.4 943.4 -7.8
09 21.04 В 5 30 км 8/8
[]
+11.8 -16.7 12 +10 +10 1007.6 942.6
12 21.04 В 3 24 км 4/4
[]
+5.3 -13.1 25 +3 +3 1007.3 942.4
15 21.04 В 1 30 км н/о +1.1 -11.0 40 0 0 1006.8 939.4
18 21.04 В 3 30 км н/о +2.1 -15.4 26 -1 -1 1004.0 940.0 +12.7
21 21.04 СВ 5 30 км н/о +2.2 -8.8 44 -3 -3 1003.0 936.1
00 22.04 В 6 23 км 9/9 1000 м
[]
+5.6 -6.3 42 +1 +2 1000.1 935.9
03 22.04 В 5 30 км 9/9 1000 м
[]
+11.1 -7.2 27 +9 +10 997.2 932.7

 

Местоположение метеостанции Шинэ-Барга-Юци (Внутренняя Монголия, Китай): широта 48.67 долгота 116.81 высота над уровнем моря 556 м.

В архиве по умолчанию представлена погода в Шинэ-Барга-Юци за последнюю неделю. Архивные данные за месяц целиком и за предыдущие месяцы, начиная с января 2011 года, Вы можете получить, выбрав интересующий диапазон дат из раскрывающегося списка и нажав кнопку "Ввод!".


*Определитесь, кто Вы:
робот инопланетянин человек

Внимание! Время в таблицах - всемирное. Для получения местного времени необходимо прибавить поправку, которая равна 8 ч.

Смотрите также архив погоды в соседних городах и на ближайших метеорологических станциях:

Погода в Забайкальске (Забайкальский край, Россия) (113 км)
Погода в Соловьевске (Забайкальский край, Россия) (159 км)
Погода в Кайластуе (Забайкальский край, Россия) (168 км)
Погода в Халхин-Голе (Монголия) (177 км)
Погода в Чойбалсане (Монголия) (179 км)
Погода в Матаде (Монголия) (189 км)
Погода в Борзе (Забайкальский край, Россия) (194 км)
Погода в Дашбалбаре (Монголия) (201 км)
Погода в Хайларе (Внутренняя Монголия, Китай) (223 км)
Погода в Бырке (Забайкальский край, Россия) (236 км)

Пояснения к столбцам:

Ветер - указаны скорость ветра в м/с - средняя за 10 мин, порывы в срок и между сроками (в фигурных скобках) и направление, откуда дует ветер: С - северный, СВ - северо-восточный, В - восточный, ЮВ - юго-восточный, Ю - южный, ЮЗ - юго-западный, З - западный, СЗ - северо-западный.
Видимость - горизонтальная дальность видимости в метрах или километрах. При видимости от 1 до 10 км при отсутствии осадков обычно наблюдается дымка, при ухудшении видимости до 1 км и менее - туман. В сухую погоду видимость может ухудшаться дымом, пылью или мглою.
Явления - указаны атмосферные явления, наблюдавшиеся в срок или в последний час перед сроком; фигурными скобками обозначены явления, наблюдавшиеся между сроками (за 1-3 часа до срока); квадратными скобками обозначены град или гололедные отложения с указанием их диаметра в мм.
Облачность - указаны через наклонную черту общая и нижняя облачность в баллах и высота нижней границы облаков в метрах; квадратными скобками обозначены формы облаков: Ci - перистые, Cs - перисто-слоистые, Cc - перисто-кучевые, Ac - высококучевые, As - высокослоистые, Sc - слоисто-кучевые, Ns - слоисто-дождевые, Cu - кучевые, Cb - кучево-дождевые. Подробнее классификацию облаков см. в Атласе облаков (PDF).
T - Температура воздуха - температура, измеренная на высоте 2 м над землей.
Td - Температура точки росы - температура, при понижении до которой содержащийся в воздухе водяной пар достигнет насыщения.
f - Относительная влажность воздуха - влажноcть воздуха, измеренная на высоте 2 м над землей.
Te - Эффективная температура - температура, которую ощущает одетый по сезону человек в тени. Характеристика душности погоды. При расчете учитывается влияние влажности воздуха и скорости ветра на теплоощущения человека.
Tes - Эффективная температура на солнце - температура, которую ощущает человек, с поправкой на солнечный нагрев. Характеристика знойности погоды. Зависит от высоты солнца над горизонтом, облачности и скорости ветра. Ночью, в пасмурную погоду, а также при ветре 12 м/с и более поправка равна нулю.
P - Атмосферное давление - приведенное к уровню моря атмосферное давление.
Po - Атмосферное давление - измеренное на уровне метеостанции атмосферное давление.
Tmin - Минимальная температура - минимум температуры воздуха на высоте 2 м над землей.
Tmax - Максимальная температура - максимум температуры воздуха на высоте 2 м над землей.
R - Количество осадков - Количество выпавших осадков за период времени, мм. При наведении курсора мыши на число - период времени, за который выпало указанное количество осадков.
R24 - Количество осадков - Количество выпавших осадков за 24 часа, мм.
S - Снежный покров - Высота снежного покрова, см. При наведении курсора мыши на число - состояние снежного покрова и степень покрытия местности в баллах.